ICEYE-X48

导读

ICEYE-X48是一颗合成孔径雷达卫星,由芬兰ICEYE公司运营,其发射国家暂未确定,于2025年3月15日发射入轨。该卫星延续了ICEYE星座高分辨率、重访周期短的特点,可全天时全天候获取地球观测数据,广泛服务于灾害监测、资源勘探、海事监测等多个领域,进一步扩充了全球商业SAR卫星星座的观测能力。

Basic Information
目录编号:
63253
目录名称:
ICEYE-X48
国际标识:
2025-052AV
轨道中心:
EARTH
卫星名称:
ICEYE-X48
卫星全名:
ICEYE-X48
卫星状态:
在轨 (已飞行539 天)
发射日期:
2025-03-15 UTC
国别 :
美国 (US)
星等 :
--
Orbit Information
数据来源 国际轨道数据
星历时间: 2026-09-04T00:01:37+0800
1天前
查看轨道信息
半长轴: 6950.146km
偏心率: 0.0001671
轨道倾角: 97.677°
近地点辐角 8.077°
升交点赤经 137.630°
平近点角 352.048°
近地点: 570.847km
远地点: 573.171km
周期: 96.106分钟
每日圈数: 14.983454
Detailed Information
使用方式:
暂无
2D Orbit Map
3D Orbit Map
Orbit Altitude Analysis Chart
Orbit Inclination Analysis Chart
Orbit Comprehensive Analysis Chart
View Comprehensive Chart
Conjunction Data List
Event ID Objects TCA Miss Dist (km) Collision Risk Probability Collision Risk Index (CRI) Action
CDM_260905-051904-362006-325324
PSLV R/B (43620)
2026-09-05T
05:19:00+0000
0.265 km
中距离
4.984523E-4 高风险 0.89
CDM_260906-212606-325306-682421
2026-09-06T
21:26:40+0000
1.531 km
极远距离
5.29281E-6 低风险 0.49
CDM_260906-232805-539906-325321
2026-09-06T
23:28:42+0000
2.582 km
极远距离
1.675114E-6 低风险 0.39
CDM_260906-044505-539206-325322
2026-09-06T
04:45:20+0000
2.636 km
极远距离
1.616316E-6 低风险 0.39
CDM_260905-014405-577406-325322
2026-09-05T
01:44:44+0000
1.818 km
极远距离
1.561227E-6 低风险 0.39
CDM_260905-025204-005706-325323
VELOX 1 (40057)
2026-09-05T
02:52:22+0000
1.952 km
极远距离
1.032264E-6 低风险 0.35
CDM_260905-011604-005706-325322
VELOX 1 (40057)
2026-09-05T
01:16:12+0000
2.931 km
极远距离
5.221653E-7 极低风险 0.29